GSAT-19 (42747 NORAD) Tracking and Keplerian Element Data

This shows tracking and keplerian element data for the satellite.

Feedback or suggestion? Click here.




ElementValue
Catalog42747
NameGSAT-19
Epoch Orbit413
Epoch Day198.70830626
Epoch Year2018
RAAN253.4404
Inclination0.0491
Eccentricity0.000552
Argument of Perigee183.7968
Mean Anonmoly161.1067
Mean Motion1.00271896
Decay Rate1.05E-06
L11 42747U 17031A 18198.70830626 .00000105 00000-0 00000+0 0 9990
L22 42747 0.0491 253.4404 0005520 183.7968 161.1067 1.00271896 4130

Live tracking and technical data element details for GSAT-19 (NORAD 42747). GSAT-19 can be tracked NOW for your location showing map with azimuth and elevation plus other details from your city location.

Track the satellite on the map from your city or location and see movement details for azimuth, elevation, latitude, longitude, range, height, and movement on the map or in text.







IsCatalogInMostPopularTable: catalog: 42747, numindb: 100
Update: records affected: 1



GetName: 42747 GSAT-19

Hit Count: updated at: Fri, 20 Jul 2018 20:32:06 GMT